QPF
0.01 0.01 0.01 0.01 0.01 0.01 0.01 0.01 0.01 0.02 0.02 0.01 0.00 0.01 0.01 0.03 0.04 0.03 0.03 0.03 0.03 0.04 0.03 0.03 0.03 0.04 0.06 0.07 0.05 0.05 0.05 0.05 0.04 0.04 0.03 0.03 0.03 0.03 0.03 0.04 0.04 0.04 0.05 0.06
0.01 0.01 0.01 0.01 0.01 0.01 0.01 0.01 0.01 0.01 0.02 0.01 0.01 0.01 0.01 0.03 0.04 0.03 0.03 0.03 0.02 0.02 0.03 0.03 0.02 0.03 0.03 0.04 0.06 0.05 0.04 0.04 0.04 0.03 0.03 0.03 0.03 0.03 0.03 0.03 0.03 0.03 0.04 0.04
0.01 0.01 0.01 0.02 0.02 0.01 0.01 0.01 0.01 0.01 0.01 0.01 0.01 0.01 0.01 0.02 0.03 0.04 0.03 0.02 0.02 0.02 0.02 0.03 0.02 0.02 0.03 0.03 0.03 0.04 0.04 0.04 0.04 0.03 0.03 0.03 0.03 0.02 0.02 0.03 0.03 0.03 0.03 0.03
0.02 0.02 0.03 0.03 0.02 0.01 0.01 0.01 0.01 0.01 0.00 0.01 0.01 0.01 0.01 0.01 0.02 0.03 0.03 0.02 0.02 0.02 0.02 0.03 0.02 0.02 0.02 0.02 0.02 0.03 0.04 0.04 0.04 0.03 0.03 0.02 0.02 0.02 0.02 0.03 0.03 0.03 0.03 0.04
0.02 0.02 0.02 0.02 0.01 0.01 0.01 0.01 0.01 0.01 0.00 0.01 0.01 0.01 0.01 0.01 0.01 0.02 0.02 0.02 0.02 0.02 0.02 0.02 0.02 0.02 0.02 0.02 0.02 0.02 0.03 0.03 0.04 0.04 0.03 0.02 0.02 0.02 0.02 0.02 0.02 0.02 0.02 0.03
0.02 0.02 0.02 0.01 0.01 0.00 0.01 0.01 0.00 0.00 0.00 0.01 0.01 0.01 0.01 0.00 0.01 0.02 0.01 0.02 0.02 0.02 0.02 0.02 0.02 0.02 0.01 0.01 0.02 0.02 0.02 0.02 0.03 0.03 0.03 0.03 0.02 0.02 0.02 0.02 0.02 0.02 0.02 0.02
0.02 0.02 0.01 0.01 0.00 0.01 0.01 0.02 0.01 0.01 0.01 0.01 0.01 0.01 0.00 0.00 0.01 0.02 0.02 0.01 0.01 0.01 0.02 0.02 0.02 0.02 0.02 0.01 0.01 0.02 0.02 0.02 0.01 0.02 0.02 0.02 0.02 0.02 0.01 0.02 0.02 0.01 0.01 0.01
0.02 0.02 0.01 0.01 0.01 0.01 0.01 0.01 0.01 0.01 0.00 0.00 0.00 0.00 0.00 0.00 0.01 0.01 0.02 0.01 0.01 0.01 0.01 0.02 0.02 0.02 0.02 0.02 0.01 0.01 0.02 0.02 0.01 0.01 0.01 0.01 0.02 0.01 0.01 0.01 0.01 0.01 0.01 0.01
0.02 0.02 0.01 0.01 0.01 0.01 0.01 0.01 0.01 0.01 0.00 0.00 0.00 0.00 0.00 0.00 0.01 0.01 0.02 0.01 0.01 0.01 0.01 0.01 0.02 0.03 0.02 0.02 0.02 0.02 0.02 0.02 0.02 0.02 0.01 0.01 0.01 0.01 0.01 0.01 0.01 0.01 0.01 0.01
0.01 0.01 0.01 0.01 0.01 0.01 0.01 0.01 0.01 0.01 0.00 0.00 0.00 0.01 0.01 0.01 0.01 0.01 0.02 0.02 0.01 0.01 0.01 0.02 0.02 0.02 0.03 0.03 0.02 0.02 0.02 0.02 0.02 0.02 0.02 0.02 0.01 0.01 0.01 0.01 0.01 0.01 0.01 0.01
0.01 0.01 0.01 0.01 0.01 0.01 0.01 0.01 0.01 0.00 0.00 0.00 0.00 0.01 0.01 0.01 0.01 0.02 0.02 0.02 0.02 0.01 0.01 0.02 0.02 0.02 0.02 0.03 0.03 0.02 0.02 0.02 0.02 0.02 0.02 0.02 0.01 0.02 0.01 0.01 0.01 0.01 0.02 0.02
0.02 0.01 0.01 0.01 0.01 0.01 0.01 0.01 0.01 0.01 0.00 0.00 0.00 0.00 0.01 0.01 0.01 0.02 0.02 0.02 0.02 0.01 0.01 0.02 0.02 0.02 0.02 0.03 0.03 0.03 0.03 0.03 0.02 0.02 0.02 0.02 0.01 0.01 0.01 0.01 0.01 0.01 0.02 0.02
0.02 0.01 0.01 0.01 0.01 0.01 0.01 0.01 0.01 0.00 0.00 0.00 0.00 0.00 0.01 0.01 0.01 0.02 0.02 0.02 0.02 0.01 0.01 0.01 0.02 0.02 0.02 0.02 0.03 0.03 0.04 0.04 0.03 0.03 0.03 0.02 0.02 0.01 0.01 0.01 0.01 0.01 0.01 0.02
0.01 0.01 0.01 0.00 0.01 0.01 0.01 0.00 0.00 0.00 0.00 0.01 0.01 0.00 0.01 0.01 0.01 0.02 0.02 0.02 0.02 0.01 0.01 0.01 0.01 0.02 0.02 0.02 0.03 0.03 0.03 0.03 0.03 0.03 0.03 0.03 0.02 0.02 0.01 0.01 0.01 0.01 0.01 0.01
0.00 0.00 0.01 0.01 0.01 0.01 0.01 0.01 0.01 0.01 0.01 0.01 0.01 0.00 0.01 0.01 0.01 0.02 0.02 0.02 0.01 0.01 0.01 0.01 0.01 0.01 0.02 0.02 0.03 0.03 0.03 0.04 0.03 0.03 0.03 0.03 0.03 0.03 0.02 0.02 0.02 0.01 0.01 0.02
0.00 0.00 0.01 0.01 0.01 0.01 0.01 0.01 0.01 0.01 0.01 0.01 0.00 0.00 0.00 0.00 0.01 0.01 0.01 0.01 0.01 0.01 0.01 0.01 0.01 0.01 0.02 0.02 0.03 0.03 0.03 0.04 0.04 0.03 0.03 0.03 0.03 0.03 0.03 0.03 0.03 0.03 0.03 0.03
0.01 0.01 0.01 0.01 0.01 0.01 0.01 0.01 0.01 0.01 0.00 0.00 0.00 0.00 0.00 0.00 0.00 0.00 0.00 0.00 0.01 0.01 0.01 0.01 0.01 0.02 0.02 0.02 0.03 0.03 0.04 0.04 0.04 0.04 0.04 0.03 0.03 0.03 0.03 0.03 0.03 0.03 0.04 0.04
0.01 0.01 0.01 0.01 0.01 0.01 0.01 0.01 0.01 0.00 0.00 0.00 0.00 0.00 0.00 0.00 0.00 0.00 0.00 0.00 0.00 0.01 0.01 0.01 0.01 0.02 0.02 0.02 0.02 0.03 0.04 0.04 0.04 0.04 0.04 0.04 0.04 0.04 0.03 0.03 0.03 0.03 0.04 0.04
0.01 0.01 0.01 0.01 0.01 0.01 0.01 0.00 0.00 0.00 0.00 0.00 0.00 0.00 0.00 0.00 0.00 0.00 0.00 0.00 0.01 0.01 0.01 0.01 0.01 0.01 0.01 0.02 0.02 0.03 0.04 0.04 0.04 0.04 0.04 0.03 0.03 0.03 0.03 0.03 0.03 0.03 0.03 0.03
0.01 0.01 0.01 0.01 0.01 0.01 0.01 0.01 0.00 0.00 0.00 0.00 0.00 0.00 0.00 0.00 0.00 0.00 0.00 0.00 0.01 0.01 0.01 0.01 0.01 0.01 0.01 0.02 0.02 0.03 0.03 0.04 0.04 0.04 0.03 0.03 0.03 0.03 0.03 0.03 0.03 0.03 0.04 0.03
0.01 0.01 0.01 0.00 0.00 0.00 0.01 0.01 0.01 0.01 0.00 0.00 0.00 0.00 0.00 0.00 0.00 0.00 0.00 0.00 0.01 0.01 0.01 0.01 0.01 0.01 0.01 0.01 0.02 0.02 0.03 0.03 0.03 0.04 0.04 0.04 0.04 0.03 0.03 0.03 0.03 0.03 0.03 0.03
0.01 0.00 0.00 0.00 0.00 0.00 0.00 0.00 0.00 0.00 0.00 0.00 0.00 0.00 0.00 0.00 0.00 0.00 0.00 0.01 0.01 0.01 0.01 0.01 0.01 0.02 0.01 0.02 0.02 0.02 0.02 0.02 0.02 0.03 0.03 0.03 0.04 0.04 0.03 0.03 0.03 0.03 0.03 0.03
0.01 0.00 0.00 0.01 0.01 0.01 0.00 0.00 0.00 0.00 0.01 0.00 0.00 0.00 0.00 0.00 0.00 0.00 0.01 0.01 0.01 0.01 0.01 0.01 0.01 0.01 0.01 0.01 0.01 0.01 0.01 0.01 0.02 0.02 0.02 0.02 0.03 0.03 0.03 0.03 0.03 0.03 0.03 0.02
0.01 0.01 0.01 0.01 0.01 0.00 0.00 0.00 0.01 0.01 0.01 0.01 0.01 0.00 0.00 0.00 0.00 0.00 0.00 0.01 0.01 0.01 0.01 0.01 0.01 0.01 0.01 0.01 0.01 0.01 0.01 0.01 0.01 0.01 0.01 0.02 0.02 0.02 0.02 0.02 0.02 0.02 0.02 0.02
0.01 0.01 0.01 0.01 0.01 0.01 0.01 0.01 0.01 0.00 0.00 0.00 0.00 0.00 0.00 0.00 0.01 0.01 0.00 0.00 0.00 0.01 0.01 0.01 0.01 0.00 0.00 0.00 0.00 0.00 0.01 0.01 0.01 0.01 0.01 0.01 0.01 0.01 0.01 0.01 0.02 0.02 0.02 0.02
0.01 0.01 0.01 0.01 0.01 0.01 0.01 0.01 0.00 0.00 0.00 0.00 0.00 0.00 0.00 0.00 0.00 0.00 0.00 0.00 0.01 0.01 0.01 0.01 0.00 0.00 0.00 0.00 0.00 0.00 0.00 0.00 0.00 0.01 0.01 0.01 0.01 0.01 0.01 0.01 0.01 0.01 0.01 0.01
0.01 0.01 0.01 0.01 0.01 0.01 0.01 0.01 0.00 0.00 0.00 0.00 0.00 0.00 0.00 0.00 0.00 0.00 0.00 0.00 0.01 0.01 0.01 0.00 0.00 0.00 0.00 0.00 0.00 0.00 0.00 0.00 0.00 0.00 0.01 0.01 0.01 0.01 0.01 0.01 0.01 0.01 0.01 0.01
MSLP
1014.77 1014.83 1014.73 1014.47 1014.06 1013.55 1013.00 1012.47 1012.03 1011.77 1011.72 1011.94 1012.44 1013.20 1014.18 1015.34 1016.61 1017.92 1019.23 1020.49 1021.65 1022.70 1023.64 1024.46 1025.18 1025.79 1026.31 1026.74 1027.09 1027.34 1027.51 1027.60 1027.60 1027.53 1027.40 1027.21 1026.96 1026.67 1026.33 1025.94 1025.50 1025.01 1024.48 1023.91
1014.82 1014.70 1014.42 1013.98 1013.42 1012.78 1012.16 1011.61 1011.22 1011.05 1011.15 1011.53 1012.19 1013.10 1014.21 1015.45 1016.77 1018.10 1019.40 1020.63 1021.75 1022.77 1023.68 1024.49 1025.20 1025.81 1026.33 1026.75 1027.08 1027.32 1027.46 1027.50 1027.47 1027.35 1027.17 1026.92 1026.63 1026.28 1025.89 1025.45 1024.96 1024.42 1023.84 1023.21
1014.83 1014.56 1014.12 1013.54 1012.87 1012.16 1011.51 1010.99 1010.67 1010.61 1010.84 1011.36 1012.16 1013.19 1014.38 1015.67 1017.00 1018.32 1019.58 1020.75 1021.83 1022.80 1023.68 1024.47 1025.17 1025.78 1026.30 1026.72 1027.04 1027.26 1027.37 1027.39 1027.31 1027.15 1026.92 1026.64 1026.30 1025.91 1025.47 1024.97 1024.43 1023.84 1023.19 1022.51
1014.71 1014.32 1013.78 1013.12 1012.40 1011.68 1011.07 1010.62 1010.41 1010.48 1010.85 1011.50 1012.41 1013.52 1014.75 1016.05 1017.36 1018.62 1019.81 1020.92 1021.93 1022.85 1023.68 1024.44 1025.12 1025.72 1026.24 1026.65 1026.96 1027.16 1027.25 1027.23 1027.12 1026.92 1026.66 1026.33 1025.96 1025.53 1025.05 1024.51 1023.92 1023.27 1022.56 1021.82
1014.40 1013.94 1013.36 1012.69 1011.99 1011.34 1010.83 1010.51 1010.44 1010.66 1011.17 1011.94 1012.94 1014.09 1015.33 1016.60 1017.85 1019.04 1020.14 1021.16 1022.09 1022.94 1023.73 1024.45 1025.10 1025.68 1026.18 1026.57 1026.86 1027.03 1027.08 1027.03 1026.88 1026.66 1026.36 1026.01 1025.60 1025.15 1024.64 1024.06 1023.42 1022.72 1021.95 1021.14
1013.92 1013.44 1012.87 1012.26 1011.66 1011.14 1010.78 1010.64 1010.74 1011.12 1011.77 1012.64 1013.70 1014.87 1016.09 1017.31 1018.47 1019.57 1020.57 1021.49 1022.33 1023.11 1023.83 1024.51 1025.12 1025.67 1026.13 1026.49 1026.74 1026.87 1026.88 1026.79 1026.61 1026.35 1026.03 1025.65 1025.23 1024.76 1024.22 1023.62 1022.95 1022.20 1021.37 1020.49
1013.35 1012.90 1012.41 1011.91 1011.46 1011.12 1010.95 1010.99 1011.28 1011.82 1012.59 1013.54 1014.64 1015.80 1016.98 1018.11 1019.19 1020.17 1021.07 1021.89 1022.64 1023.34 1024.00 1024.62 1025.19 1025.69 1026.11 1026.42 1026.62 1026.70 1026.66 1026.53 1026.31 1026.02 1025.67 1025.28 1024.84 1024.36 1023.81 1023.18 1022.48 1021.69 1020.82 1019.87
1012.85 1012.48 1012.10 1011.75 1011.47 1011.32 1011.35 1011.58 1012.04 1012.71 1013.58 1014.58 1015.68 1016.81 1017.92 1018.97 1019.94 1020.81 1021.60 1022.32 1022.99 1023.62 1024.21 1024.77 1025.29 1025.74 1026.10 1026.36 1026.50 1026.52 1026.44 1026.26 1026.00 1025.68 1025.31 1024.90 1024.46 1023.96 1023.40 1022.76 1022.03 1021.20 1020.28 1019.28
1012.59 1012.32 1012.08 1011.88 1011.77 1011.80 1012.01 1012.40 1012.99 1013.76 1014.68 1015.70 1016.77 1017.84 1018.87 1019.82 1020.68 1021.45 1022.14 1022.77 1023.36 1023.91 1024.45 1024.95 1025.41 1025.80 1026.11 1026.31 1026.39 1026.36 1026.23 1026.00 1025.70 1025.36 1024.97 1024.55 1024.09 1023.57 1023.00 1022.34 1021.58 1020.73 1019.77 1018.73
1012.71 1012.55 1012.43 1012.37 1012.42 1012.59 1012.93 1013.43 1014.10 1014.92 1015.85 1016.85 1017.86 1018.85 1019.78 1020.62 1021.38 1022.05 1022.65 1023.20 1023.71 1024.21 1024.68 1025.13 1025.53 1025.87 1026.12 1026.26 1026.29 1026.21 1026.03 1025.77 1025.44 1025.07 1024.66 1024.22 1023.75 1023.22 1022.62 1021.94 1021.15 1020.27 1019.28 1018.21
1013.26 1013.21 1013.20 1013.25 1013.41 1013.68 1014.10 1014.66 1015.36 1016.17 1017.07 1018.01 1018.94 1019.83 1020.65 1021.39 1022.04 1022.62 1023.14 1023.61 1024.06 1024.50 1024.91 1025.30 1025.65 1025.93 1026.12 1026.21 1026.19 1026.07 1025.86 1025.57 1025.22 1024.83 1024.40 1023.94 1023.45 1022.89 1022.27 1021.55 1020.74 1019.82 1018.80 1017.71
1014.23 1014.26 1014.34 1014.47 1014.69 1015.01 1015.46 1016.03 1016.71 1017.48 1018.31 1019.16 1019.99 1020.78 1021.49 1022.13 1022.69 1023.18 1023.62 1024.03 1024.41 1024.79 1025.14 1025.47 1025.75 1025.97 1026.11 1026.15 1026.09 1025.94 1025.70 1025.39 1025.03 1024.62 1024.18 1023.71 1023.19 1022.60 1021.95 1021.20 1020.35 1019.40 1018.36 1017.25
1015.49 1015.60 1015.73 1015.91 1016.15 1016.49 1016.93 1017.47 1018.10 1018.80 1019.55 1020.30 1021.04 1021.72 1022.34 1022.88 1023.35 1023.77 1024.13 1024.47 1024.79 1025.09 1025.37 1025.63 1025.84 1025.99 1026.07 1026.06 1025.97 1025.78 1025.53 1025.21 1024.84 1024.43 1023.98 1023.49 1022.95 1022.34 1021.65 1020.87 1019.99 1019.01 1017.96 1016.84
1016.90 1017.06 1017.23 1017.43 1017.68 1018.01 1018.42 1018.92 1019.49 1020.12 1020.78 1021.45 1022.09 1022.68 1023.21 1023.67 1024.06 1024.40 1024.69 1024.95 1025.19 1025.41 1025.61 1025.78 1025.91 1025.98 1026.00 1025.93 1025.80 1025.59 1025.32 1025.00 1024.63 1024.22 1023.77 1023.27 1022.71 1022.08 1021.37 1020.56 1019.66 1018.68 1017.62 1016.50
1018.34 1018.54 1018.73 1018.93 1019.18 1019.49 1019.87 1020.32 1020.84 1021.40 1021.99 1022.58 1023.14 1023.66 1024.12 1024.50 1024.82 1025.09 1025.30 1025.48 1025.62 1025.74 1025.84 1025.91 1025.94 1025.93 1025.87 1025.75 1025.57 1025.34 1025.06 1024.73 1024.37 1023.96 1023.52 1023.02 1022.46 1021.82 1021.10 1020.29 1019.39 1018.41 1017.36 1016.27
1019.72 1019.93 1020.13 1020.34 1020.58 1020.87 1021.23 1021.64 1022.11 1022.63 1023.16 1023.69 1024.19 1024.64 1025.03 1025.35 1025.60 1025.79 1025.92 1026.00 1026.04 1026.06 1026.04 1026.00 1025.92 1025.82 1025.67 1025.49 1025.26 1025.00 1024.71 1024.39 1024.03 1023.64 1023.21 1022.72 1022.17 1021.55 1020.84 1020.05 1019.17 1018.21 1017.19 1016.14
1020.99 1021.21 1021.42 1021.63 1021.86 1022.14 1022.47 1022.86 1023.30 1023.77 1024.26 1024.74 1025.19 1025.59 1025.91 1026.17 1026.34 1026.45 1026.48 1026.47 1026.40 1026.30 1026.17 1026.01 1025.83 1025.63 1025.40 1025.15 1024.88 1024.59 1024.29 1023.96 1023.61 1023.24 1022.83 1022.37 1021.84 1021.25 1020.58 1019.82 1018.99 1018.08 1017.11 1016.11
1022.18 1022.40 1022.59 1022.79 1023.02 1023.28 1023.60 1023.97 1024.38 1024.82 1025.26 1025.70 1026.09 1026.42 1026.69 1026.87 1026.96 1026.98 1026.92 1026.81 1026.64 1026.43 1026.18 1025.92 1025.64 1025.35 1025.05 1024.74 1024.43 1024.12 1023.80 1023.47 1023.13 1022.78 1022.39 1021.96 1021.47 1020.92 1020.30 1019.61 1018.84 1018.00 1017.10 1016.15
1023.31 1023.50 1023.68 1023.87 1024.07 1024.32 1024.62 1024.96 1025.33 1025.73 1026.12 1026.50 1026.82 1027.08 1027.27 1027.37 1027.38 1027.31 1027.16 1026.95 1026.68 1026.38 1026.04 1025.70 1025.34 1024.98 1024.62 1024.27 1023.93 1023.60 1023.27 1022.94 1022.61 1022.27 1021.91 1021.51 1021.07 1020.57 1020.02 1019.39 1018.69 1017.93 1017.11 1016.22
1024.38 1024.54 1024.69 1024.85 1025.03 1025.25 1025.51 1025.81 1026.14 1026.47 1026.80 1027.09 1027.34 1027.51 1027.61 1027.62 1027.54 1027.38 1027.15 1026.85 1026.51 1026.14 1025.74 1025.34 1024.93 1024.53 1024.14 1023.77 1023.41 1023.07 1022.74 1022.41 1022.09 1021.77 1021.43 1021.06 1020.66 1020.21 1019.72 1019.16 1018.54 1017.85 1017.09 1016.26
1025.38 1025.50 1025.61 1025.72 1025.87 1026.05 1026.26 1026.50 1026.76 1027.02 1027.26 1027.46 1027.61 1027.68 1027.68 1027.59 1027.42 1027.18 1026.88 1026.52 1026.13 1025.71 1025.28 1024.86 1024.44 1024.03 1023.63 1023.26 1022.91 1022.57 1022.24 1021.92 1021.61 1021.30 1020.97 1020.63 1020.26 1019.86 1019.41 1018.91 1018.35 1017.72 1017.01 1016.21
1026.26 1026.32 1026.38 1026.45 1026.55 1026.68 1026.83 1027.01 1027.19 1027.35 1027.50 1027.59 1027.63 1027.60 1027.49 1027.31 1027.06 1026.75 1026.39 1025.99 1025.57 1025.14 1024.72 1024.30 1023.89 1023.50 1023.13 1022.78 1022.44 1022.12 1021.81 1021.50 1021.19 1020.89 1020.57 1020.24 1019.89 1019.52 1019.10 1018.64 1018.12 1017.53 1016.85 1016.06
1026.94 1026.95 1026.97 1027.00 1027.05 1027.12 1027.21 1027.31 1027.41 1027.48 1027.52 1027.51 1027.44 1027.30 1027.10 1026.83 1026.51 1026.15 1025.75 1025.33 1024.91 1024.50 1024.09 1023.70 1023.34 1022.99 1022.66 1022.34 1022.04 1021.74 1021.44 1021.15 1020.85 1020.55 1020.24 1019.92 1019.58 1019.21 1018.81 1018.37 1017.86 1017.28 1016.60 1015.81
1027.39 1027.37 1027.35 1027.34 1027.35 1027.38 1027.41 1027.44 1027.45 1027.43 1027.37 1027.26 1027.09 1026.86 1026.58 1026.24 1025.87 1025.47 1025.05 1024.63 1024.23 1023.84 1023.47 1023.13 1022.81 1022.52 1022.24 1021.97 1021.70 1021.43 1021.16 1020.88 1020.59 1020.29 1019.98 1019.66 1019.31 1018.94 1018.54 1018.09 1017.58 1016.98 1016.28 1015.46
1027.63 1027.59 1027.54 1027.51 1027.49 1027.48 1027.46 1027.42 1027.36 1027.27 1027.12 1026.93 1026.68 1026.37 1026.02 1025.63 1025.22 1024.80 1024.38 1023.97 1023.59 1023.24 1022.91 1022.62 1022.35 1022.11 1021.87 1021.64 1021.41 1021.18 1020.93 1020.66 1020.39 1020.09 1019.78 1019.45 1019.09 1018.71 1018.29 1017.82 1017.28 1016.65 1015.92 1015.05
1027.74 1027.69 1027.63 1027.59 1027.54 1027.49 1027.42 1027.34 1027.21 1027.05 1026.84 1026.58 1026.26 1025.90 1025.51 1025.09 1024.65 1024.23 1023.81 1023.42 1023.06 1022.74 1022.45 1022.19 1021.97 1021.76 1021.56 1021.37 1021.17 1020.96 1020.73 1020.48 1020.21 1019.91 1019.60 1019.26 1018.89 1018.49 1018.05 1017.55 1016.97 1016.30 1015.52 1014.60
1027.84 1027.79 1027.73 1027.66 1027.59 1027.51 1027.40 1027.26 1027.08 1026.85 1026.58 1026.27 1025.90 1025.51 1025.08 1024.64 1024.20 1023.77 1023.37 1022.99 1022.65 1022.35 1022.09 1021.86 1021.65 1021.47 1021.29 1021.12 1020.94 1020.74 1020.52 1020.28 1020.01 1019.72 1019.40 1019.05 1018.67 1018.25 1017.78 1017.24 1016.62 1015.91 1015.08 1014.12
Thickness
5410 5410 5404 5400 5398 5390 5381 5383 5384 5396 5398 5404 5398 5390 5386 5381 5378 5377 5375 5373 5369 5366 5363 5362 5360 5359 5358 5357 5356 5355 5354 5353 5352 5352 5352 5352 5352 5352 5352 5352 5353 5354 5355 5357
5393 5401 5396 5393 5395 5390 5384 5381 5380 5383 5388 5395 5388 5384 5379 5374 5371 5369 5367 5363 5359 5357 5355 5353 5351 5350 5348 5346 5345 5344 5343 5342 5342 5341 5341 5341 5340 5340 5340 5341 5341 5341 5343 5344
5388 5392 5386 5387 5391 5386 5379 5378 5376 5376 5384 5382 5378 5376 5371 5367 5363 5360 5357 5353 5350 5347 5345 5344 5342 5340 5338 5337 5335 5334 5333 5332 5331 5330 5330 5329 5329 5328 5328 5329 5329 5330 5331 5333
5374 5376 5378 5400 5390 5387 5378 5374 5370 5371 5371 5371 5369 5366 5364 5361 5356 5352 5349 5344 5341 5338 5336 5334 5333 5331 5329 5328 5326 5324 5323 5322 5321 5320 5319 5318 5317 5317 5317 5317 5317 5318 5320 5322
5367 5367 5381 5390 5381 5373 5367 5365 5367 5363 5363 5360 5356 5355 5356 5354 5349 5344 5339 5335 5331 5328 5325 5324 5323 5322 5320 5318 5316 5314 5313 5312 5311 5309 5308 5307 5306 5306 5306 5306 5307 5308 5309 5311
5360 5360 5369 5384 5365 5363 5359 5356 5363 5358 5353 5348 5344 5342 5348 5345 5339 5334 5330 5326 5322 5318 5316 5314 5312 5312 5310 5308 5307 5305 5303 5302 5300 5299 5297 5297 5296 5296 5296 5296 5297 5298 5300 5301
5348 5351 5364 5362 5352 5353 5352 5357 5353 5350 5346 5339 5334 5333 5334 5332 5328 5324 5320 5316 5313 5309 5306 5304 5303 5302 5301 5299 5297 5295 5293 5291 5290 5289 5288 5287 5287 5287 5286 5287 5287 5287 5289 5291
5343 5344 5356 5347 5342 5342 5344 5342 5340 5338 5335 5330 5326 5324 5322 5320 5317 5314 5310 5307 5303 5299 5296 5295 5293 5293 5291 5289 5287 5285 5283 5281 5280 5280 5279 5279 5278 5278 5277 5277 5277 5278 5279 5281
5347 5355 5356 5344 5340 5336 5333 5330 5328 5326 5323 5319 5316 5314 5312 5309 5306 5303 5300 5297 5293 5289 5287 5285 5283 5282 5279 5278 5277 5275 5273 5271 5270 5270 5270 5269 5269 5270 5269 5268 5268 5269 5269 5271
5341 5349 5347 5341 5335 5331 5325 5320 5318 5316 5313 5309 5306 5303 5300 5298 5295 5293 5291 5287 5284 5280 5277 5275 5273 5271 5269 5268 5266 5264 5262 5261 5260 5260 5260 5260 5260 5261 5261 5259 5259 5259 5259 5261
5332 5337 5336 5336 5329 5323 5318 5313 5310 5307 5303 5300 5296 5293 5289 5287 5285 5283 5281 5277 5273 5270 5267 5265 5263 5261 5260 5258 5256 5254 5252 5251 5250 5251 5251 5251 5250 5250 5250 5250 5250 5251 5251 5252
5330 5330 5324 5322 5318 5314 5308 5304 5300 5297 5294 5290 5287 5283 5280 5277 5275 5272 5269 5266 5263 5260 5257 5254 5252 5251 5249 5247 5246 5243 5243 5242 5240 5240 5240 5241 5240 5240 5240 5241 5242 5243 5244 5245
5321 5319 5314 5312 5308 5303 5299 5294 5290 5286 5283 5280 5277 5273 5270 5266 5264 5261 5258 5255 5252 5249 5246 5244 5242 5240 5239 5237 5236 5233 5232 5231 5231 5231 5231 5231 5231 5230 5231 5231 5232 5233 5234 5236
5314 5309 5306 5302 5298 5292 5288 5285 5280 5276 5273 5270 5267 5263 5259 5256 5253 5249 5246 5244 5241 5238 5236 5234 5232 5230 5228 5227 5225 5223 5222 5221 5221 5221 5221 5221 5221 5221 5221 5222 5223 5223 5224 5226
5304 5300 5296 5292 5287 5283 5279 5275 5271 5266 5262 5259 5256 5253 5249 5245 5242 5238 5235 5233 5231 5228 5225 5223 5222 5220 5219 5217 5215 5214 5212 5212 5211 5211 5210 5211 5211 5211 5212 5212 5212 5214 5215 5217
5294 5291 5287 5282 5278 5273 5269 5265 5261 5257 5253 5250 5246 5242 5239 5235 5232 5229 5226 5223 5220 5218 5215 5213 5212 5210 5209 5208 5206 5204 5203 5203 5203 5202 5201 5201 5201 5201 5201 5202 5203 5204 5205 5206
5284 5282 5277 5272 5268 5264 5260 5257 5253 5248 5244 5240 5236 5233 5229 5226 5223 5220 5216 5213 5210 5207 5205 5203 5202 5201 5199 5197 5195 5194 5194 5193 5193 5192 5191 5191 5191 5191 5191 5192 5193 5194 5195 5197
5275 5272 5268 5264 5259 5255 5251 5247 5243 5239 5235 5231 5227 5223 5219 5216 5213 5209 5206 5203 5201 5199 5197 5195 5193 5191 5189 5187 5186 5185 5184 5183 5182 5182 5181 5181 5181 5181 5182 5182 5183 5184 5185 5187
5265 5261 5258 5254 5250 5245 5241 5237 5233 5229 5225 5221 5218 5213 5209 5206 5202 5199 5196 5193 5190 5188 5188 5186 5185 5182 5180 5178 5177 5175 5173 5173 5172 5172 5171 5172 5171 5171 5171 5172 5173 5174 5175 5177
5255 5251 5247 5244 5240 5235 5230 5227 5223 5218 5215 5212 5208 5204 5200 5197 5193 5190 5187 5184 5181 5179 5177 5176 5174 5172 5170 5168 5167 5165 5164 5163 5163 5162 5161 5161 5161 5161 5161 5162 5163 5165 5166 5167
5244 5241 5237 5233 5229 5225 5221 5217 5213 5209 5205 5202 5199 5195 5191 5188 5184 5181 5178 5175 5174 5172 5169 5168 5165 5163 5161 5160 5158 5156 5155 5154 5153 5152 5151 5151 5151 5151 5152 5153 5154 5156 5157 5159
5234 5231 5227 5223 5219 5215 5212 5208 5204 5201 5197 5193 5190 5187 5183 5180 5177 5174 5170 5167 5165 5164 5162 5159 5156 5155 5154 5152 5150 5148 5146 5145 5144 5143 5142 5141 5141 5142 5143 5144 5145 5147 5148 5149
5226 5222 5218 5214 5211 5207 5203 5199 5196 5193 5189 5186 5182 5179 5175 5172 5169 5166 5163 5161 5158 5156 5154 5151 5149 5149 5148 5145 5142 5140 5138 5137 5135 5134 5133 5133 5133 5133 5134 5136 5137 5139 5140 5141
5217 5213 5209 5205 5202 5198 5195 5192 5189 5186 5182 5179 5175 5172 5168 5165 5162 5159 5156 5154 5151 5149 5146 5144 5144 5143 5141 5137 5134 5132 5131 5129 5128 5127 5126 5126 5126 5126 5127 5128 5130 5131 5132 5133
5207 5203 5200 5196 5193 5191 5188 5185 5182 5178 5175 5173 5169 5166 5162 5158 5155 5152 5149 5146 5144 5142 5140 5137 5136 5135 5133 5130 5127 5125 5123 5122 5121 5121 5120 5120 5119 5119 5120 5121 5122 5123 5124 5126
5198 5195 5192 5188 5186 5183 5181 5178 5174 5172 5169 5166 5163 5159 5156 5153 5149 5145 5142 5140 5137 5136 5133 5131 5129 5127 5125 5123 5120 5118 5117 5115 5114 5113 5113 5113 5113 5113 5114 5115 5116 5117 5118 5119
5190 5187 5185 5181 5179 5176 5173 5170 5167 5164 5161 5158 5155 5152 5149 5146 5142 5139 5136 5133 5131 5128 5126 5124 5122 5120 5118 5116 5114 5113 5111 5110 5109 5108 5107 5107 5107 5108 5108 5109 5110 5111 5112 5114